{"data":{"norad_id":58827,"epoch":"2026-09-20T13:41:21.309792Z","epoch_age_seconds":146452,"freshness":"FRESH","line1":"1 58827U 24017B   26263.57038553  .00023643  00000+0  70863-3 0  9993","line2":"2 58827  53.1594  17.6871 0001051  84.6917 275.4206 15.34401581149913","mean_motion":15.34401581,"eccentricity":0.0001051,"inclination_deg":53.1594,"raan_deg":17.6871,"arg_perigee_deg":84.6917,"mean_anomaly_deg":275.4206,"bstar":0.00070863,"rev_number":14991,"period_min":93.847661383503,"perigee_km":461.97956933059,"apogee_km":463.41751296133,"semimajor_km":6840.835541146,"source":"CELESTRAK","updated_at":"2026-09-21T09:00:33.982892Z"}}